星链-32163 (STARLINK-32163)

导读

STARLINK-32163是美国SpaceX星链互联网卫星星座的一员,于2024年7月27日发射入轨,旨在为全球提供高速低延迟宽带互联网服务,尤其服务偏远地区和网络基础设施匮乏区域。该卫星延续星链设计,采用低轨部署,依托规模化星座组网,助力实现全球无缝网络覆盖,推动星链星座服务能力进一步完善。 (全文119字)

基本信息
目录编号:
60262
目录名称:
STARLINK-32163
国际标识:
2024-131H
轨道中心:
EARTH
卫星名称:
星链-32163 (STARLINK-32163)
卫星全名:
星链-32163 (STARLINK-32163)
卫星状态:
在轨 (已飞行691 天)
发射日期:
2024-07-27 UTC
国别 :
美国 (US)
星等 :
--
轨道信息
数据来源 国际轨道数据
星历时间: 2026-06-17T23:51:55+0800
8小时前
查看轨道信息
半长轴: 6848.865km
偏心率: 0.0001148
轨道倾角: 53.161°
近地点辐角 72.630°
升交点赤经 307.439°
平近点角 287.483°
近地点: 469.941km
远地点: 471.515km
周期: 94.013分钟
每日圈数: 15.317041
详细信息
卫星平台:
Starlink v2.0 mini
运营商:
太空探索技术公司
运营商所在国:
美国
制造商(研发单位):
太空探索技术公司
制造商所在国:
美国
使用方式:
暂无
卫星简介
星链(Starlink)计划是由太空探索技术公司(SpaceX)提出的一个巨型低轨卫星互联网星座项目,计划在2019年至2024年间在太空搭建由约1.2万颗卫星组成的“星链”网络,其中1584颗将部署在地球上空550千米处的近地轨道,并从2020年开始工作。该卫星仍在工作。
2D轨道图
3D轨道图
轨道高度分析图
轨道倾角分析图
轨道综合分析图
查看轨道综合分析图